NIMBUS 2 DEB, 42441

Orbit data source: Space-Track

NIMBUS 2 DEB, 42441 is space debris in SSO originally from a launch on Sun, 15 May 1966 UTC launched from the Air Force Western Test Range (AFWTR). Debris objects in space refer to the collection of defunct objects orbiting the Earth. Examples of debris include non-operational satellites, rocket bodies, and fragments generated from explosions, collisions, or faulty payload assembly.

Loading next visibility...
Identifier
42441, 1966-040BU
Orbit
SSO
Country
Flag of USUS
Related business
Manufacturer
Unknown
Mission
Spacecraft
Bus & Motor
Unknown
Mass
Unknown
Launch date (UTC)
1966-05-15 (60 years ago)
Launch vehicle
Unknown
Launch site
Air Force Western Test Range (AFWTR)
Object type
Payload
Rocket body
Debris
Shape & HBR
Unknown shape, 0.1 m
Radar Cross Section
Medium (>0.1 m² and <1 m²)

Expand to show TLE details & history
Last TLE update: 2 days ago

TLE from 2 days ago
0 NIMBUS 2 DEB
1 42441U 66040BU  26171.05853797  .00001621  00000-0  28140-2 0  9999
2 42441 100.4266  19.1581 0031631 225.7354 134.1179 13.45354023464092
Epoch: 2026-06-20T01:24Z
TLE epoch observation values (Epoch: 2026-06-20T01:24:17.680Z)
Latitude
0.00001°
Longitude
89.80582°
Altitude
1,108.639 km
Speed
7.29 km/s
True Right ascension
01h 16m 37s
True Declination
0° 00' 00"
Sunlit
Object was in daylight at epoch
Visualization orbit readout
Latitude
Unknown
Longitude
Unknown
Altitude
Unknown
Speed
Unknown
Apparent Right ascension
Unknown
Apparent Declination
Unknown
Sunlit
N/A
Visualization observer readout
Local Sidereal Time
21:35:27
Azimuth
Unknown
Elevation
Unknown
Doppler factor
Unknown
Orbital elements
Apogee altitude
1,110.36 km
Perigee altitude
1,063.135 km
Semi-major axis
7,464.884 km
Eccentricity
0.00316
Inclination
100.4266°
RAAN
19.1581°
Arg. of periapsis
225.7354°
True anomaly
134.3774°
Mean anomaly
134.1179°
Eccentric anomaly
134.24772°
Mean motion
3.36518 °/min
Orbital period
106.98 mins
BSTAR
0.002814
Loading maneuver chart data...
Computing Atmospheric mass density...
Loading historical data...
Loading historical data...
Loading historical data...
Loading historical data...
Loading historical data...
Loading historical data...
Loading historical data...

Documentation

Showing up to 5 results
|